Home > Time Zones > World Clock > Weather > Serbia > Niš > Past weeks

Flag for Serbia Weather past 2 weeks in Niš, Serbia

Now
46 °F

Clear.


Feels Like: 42 °F
Forecast: 33 / 58 °F
Wind: 9 mph from Northwest

Location: Nis Airport

Current Time: Apr 19, 2015 at 9:57:58 PM

Latest Report: Apr 19, 2015 at 9:30 PM


Visibility: 10 mi

Pressure: 30.12 "Hg

Humidity: 50%

Dew point: 28 °F

Location of NišLocation

Historic Weather in Niš — Graph

°F

Niš temperature yesterday

Maximum temperature yesterday: 68 °F (at 11:00 AM)
Minimum temperature yesterday: 45 °F (at 10:00 PM)
Average temperature yesterday: 56 °F

Past Weeks' High & Low Weather Summary

 TemperatureHumidityPressure
High79 °F (Apr 16, 3:00 PM)93% (Apr 5, 7:30 PM)30.45 "Hg (Apr 5, 7:30 PM)
Low36 °F (Apr 8, 5:30 AM)14% (Apr 11, 5:30 PM)29.83 "Hg (Apr 5, 3:30 AM)
Average52 °F59%30.12 "Hg
* Reported Apr 4 9:00 PM — Apr 19 9:00 PM, Niš, Weather by CustomWeather, © 2015

Note: Actual official high and low records may vary slightly from our data, if they occured in-between our weather recording intervals... More about our weather records

Advertising

Niš weather history for previous 24 hours

 ConditionsComfort  
Time TempWeatherWind HumidityBarometerVisibility
9:00 PM
Sun, Apr 19
46 °FClear.12 mph50%30.12 "Hg10 mi
8:30 PM48 °FClear.10 mph46%30.09 "Hg10 mi
8:00 PM48 °FSunny.10 mph46%30.09 "Hg10 mi
7:30 PM50 °FSunny.12 mph43%30.09 "Hg10 mi
7:00 PM52 °FSunny.13 mph38%30.09 "Hg10 mi
6:30 PM54 °FSunny.15 mph35%30.07 "Hg10 mi
6:00 PM54 °FPassing clouds.13 mph33%30.07 "HgN/A
5:30 PM55 °FPassing clouds.13 mph31%30.07 "HgN/A
5:00 PM55 °FPassing clouds.14 mph33%30.07 "HgN/A
4:30 PM55 °FPassing clouds.12 mph33%30.07 "HgN/A
4:00 PM57 °FPassing clouds.12 mph33%30.07 "HgN/A
3:30 PM57 °FPassing clouds.15 mph33%30.09 "HgN/A
3:00 PM55 °FPassing clouds.13 mph36%30.09 "HgN/A
2:30 PM55 °FScattered clouds.13 mph36%30.09 "HgN/A
2:00 PM55 °FScattered clouds.13 mph36%30.09 "HgN/A
1:30 PM55 °FScattered clouds.13 mph38%30.12 "HgN/A
1:00 PM54 °FScattered clouds.14 mph41%30.12 "HgN/A
12:30 PM54 °FScattered clouds.14 mph44%30.12 "HgN/A
12:00 PM52 °FScattered clouds.15 mph47%30.15 "HgN/A
11:30 AM52 °FScattered clouds.16 mph50%30.15 "HgN/A
11:00 AM50 °FScattered clouds.15 mph54%30.15 "HgN/A
10:30 AM48 °FScattered clouds.13 mph62%30.15 "HgN/A
10:00 AM46 °FPartly sunny.12 mph76%30.15 "HgN/A
9:30 AM46 °FPartly sunny.13 mph76%30.15 "HgN/A
9:00 AM45 °FScattered clouds.10 mph81%30.15 "HgN/A
8:30 AM45 °FBroken clouds.14 mph81%30.15 "HgN/A
8:00 AM45 °FBroken clouds.10 mph87%30.15 "HgN/A
7:30 AM43 °FBroken clouds.6 mph87%30.12 "HgN/A
7:00 AM43 °FBroken clouds.2 mph87%30.12 "HgN/A
6:30 AM43 °FLight rain. Partly cloudy.5 mph81%30.12 "HgN/A
6:00 AM43 °FLight rain. Partly cloudy.7 mph87%30.12 "HgN/A
5:30 AM43 °FLight rain. Partly cloudy.3 mph87%30.12 "HgN/A
5:00 AM43 °FLight rain. Partly cloudy.8 mph87%30.09 "HgN/A
4:30 AM43 °FLight rain. Partly cloudy.9 mph87%30.09 "HgN/A
4:00 AM43 °FLight rain. Partly cloudy.7 mph87%30.09 "HgN/A
3:30 AM43 °FLight rain. Partly cloudy.7 mph87%30.09 "HgN/A
3:00 AM45 °FPartly cloudy.6 mph81%30.09 "HgN/A
2:30 AM45 °FPartly cloudy.2 mph81%30.09 "HgN/A
2:00 AM45 °FPartly cloudy.No wind81%30.09 "HgN/A
1:30 AM45 °FPartly cloudy.1 mph81%30.09 "HgN/A
1:00 AM45 °FPartly cloudy.2 mph81%30.09 "HgN/A
12:30 AM45 °FLight rain. Partly cloudy.7 mph81%30.09 "HgN/A
12:00 AM45 °FLight rain. Partly cloudy.12 mph81%30.09 "HgN/A
11:30 PM
Sat, Apr 18
45 °FLight rain. Partly cloudy.9 mph81%30.09 "HgN/A
11:00 PM45 °FLight rain. Partly cloudy.12 mph81%30.09 "HgN/A
10:30 PM45 °FLight rain. Partly cloudy.14 mph87%30.09 "HgN/A
10:00 PM45 °FLight rain. Partly cloudy.15 mph87%30.07 "HgN/A
9:30 PM46 °FLight rain. Partly cloudy.16 mph82%30.07 "HgN/A
9:00 PM46 °FLight rain. Partly cloudy.14 mph87%30.07 "HgN/A
Weather by CustomWeather, © 2015

See weather overviewHow to use our weather pages